星链-34444 (STARLINK-34444)

导读 | 豆包AI

STARLINK-34444是美国SpaceX公司星链星座的成员,于2025年6月13日发射入轨,归属星链低轨互联网星座组网。作为星链星座扩容的一部分,它将为全球尤其是偏远地区提供高速卫星互联网接入服务,依托低轨轨道布局降低通信延迟,支撑全球互联网覆盖,进一步扩展星链系统的服务能力与覆盖范围。

基本信息
目录编号:
64369
目录名称:
STARLINK-34444
国际标识:
2025-126AB
轨道中心:
EARTH
卫星名称:
星链-34444
卫星全名:
星链-34444 (STARLINK-34444)
卫星状态:
在轨 (已飞行320 天)
发射日期:
2025-06-13 UTC
国别 :
美国 (US)
星等 :
--
轨道信息
数据来源 国际轨道数据
星历时间: 2026-04-29T11:03:29+0800
11小时前
查看轨道信息
半长轴: 6950.184km
偏心率: 0.0002517
轨道倾角: 70.001°
近地点辐角 268.872°
升交点赤经 267.410°
平近点角 91.215°
近地点: 570.297km
远地点: 573.797km
周期: 96.107分钟
每日圈数: 14.983329
详细信息
固有亮度:
5
最大亮度:
2.5
卫星平台:
Starlink V1.0
覆盖范围:
全球
运营商:
太空探索技术公司
运营商所在国:
美国
制造商(研发单位):
太空探索技术公司
制造商所在国:
美国
使用方式:
暂无
卫星简介
Starlink 计划是 SpaceX 推出的全球卫星互联网项目,通过发射低轨道卫星,为全球尤其是偏远地区提供高速、低延迟的互联网服务。自 2019 年起,Starlink 已部署数千颗卫星,旨在缩小全球数字鸿沟,推动互联网普及。该项目还为军事、航空等行业提供通信支持,带来广泛经济效益。
2D轨道图
3D轨道图
轨道高度分析图
轨道倾角分析图
轨道综合分析图
查看轨道综合分析图